Dubrovnik, Croatia

6:03 PM CET on December 11, 2017 (GMT +0100)
Cilipi

Weather History for LDDU - December, 2017

Change the Weather History Date:

Saturday, December 2, 2017

  Actual Average (LYTV) Record (LYTV)
Temperature  
Mean Temperature 49 °F -  
Max Temperature 54 °F 58 °F 86 °F (2000)
Min Temperature 44 °F 41 °F 31 °F (2016)
Degree Days  
Heating Degree Days 16    
Moisture  
Dew Point 40 °F    
Average Humidity 75    
Maximum Humidity 100    
Minimum Humidity 55    
Precipitation  
Precipitation 0.43 in - - ()
Sea Level Pressure  
Sea Level Pressure 29.85 in    
Wind  
Wind Speed 10 mph ()    
Max Wind Speed 25 mph    
Max Gust Speed 38 mph    
Visibility 7.6 miles    
Events Rain    
Averages and records for this station are not official NWS values.
T = Trace of Precipitation, MM = Missing Value Source: Averaged Metar Reports

Daily Weather History Graph

Daily Weather History Graph

Search for Another Location

Airport or City:

Trip Planner

Search our weather history database for the weather conditions in past years. The results will help you decide how hot, cold, wet, or windy it might be!

Date:

Astronomy

Dec. 02, 2017 Rise Set
Actual Time 6:58 AM CET 4:14 PM CET
Civil Twilight 6:26 AM CET 4:45 PM CET
Nautical Twilight 5:51 AM CET 5:21 PM CET
Astronomical Twilight 5:17 AM CET 5:55 PM CET
Moon 3:45 PM CET (12/2) 5:01 AM CET (12/2)
Length of Visible Light 10h 19m
Length of Day
9h 16m
Waxing Gibbous, 98% of the Moon is Illuminated
Dec 2
Waxing Gibbous
Dec 3
Full
Dec 10
Last Quarter
Dec 18
New
Dec 26
First Quarter

Hourly Weather History & Observations

Time (CET) Temp. Windchill Dew Point Humidity Pressure Visibility Wind Dir Wind Speed Gust Speed Precip Events Conditions
12:00 AM 48.2 °F - 41.0 °F 76% 29.80 in 6.2 mi ENE 8.1 mph - N/A Rain Light Rain
12:30 AM 48.2 °F - 42.8 °F 82% 29.80 in 6.2 mi NE 6.9 mph - N/A Rain Light Rain
1:00 AM 48 °F - 43 °F 75% 29.82 in 12 mi NE 6.7 mph - - Rain Light Rain
1:00 AM 48.2 °F - 42.8 °F 82% 29.80 in 6.2 mi NE 5.8 mph - N/A Rain Light Rain
1:30 AM 46.4 °F 44.3 °F 46.4 °F 100% 29.80 in 6.2 mi East 4.6 mph - N/A Rain Light Rain
2:00 AM 46.4 °F 43.5 °F 46.4 °F 100% 29.83 in 6.2 mi NE 5.8 mph - N/A Rain Light Rain
2:30 AM 46.4 °F 41.9 °F 42.8 °F 87% 29.80 in 6.2 mi NE 9.2 mph - N/A Rain Light Rain
3:00 AM 48.2 °F - 42.8 °F 82% 29.83 in 6.2 mi NNE 10.4 mph - N/A Rain Light Rain
3:30 AM 48.2 °F - 41.0 °F 76% 29.83 in 6.2 mi NNE 8.1 mph - N/A Rain Light Rain
4:00 AM 48 °F - 42 °F 71% 29.83 in 16 mi NNE 11.2 mph - - Rain Light Rain
4:00 AM 48.2 °F - 41.0 °F 76% 29.83 in 6.2 mi NNE 11.5 mph - N/A   Partly Cloudy
4:30 AM 48.2 °F - 41.0 °F 76% 29.83 in 6.2 mi NNE 12.7 mph - N/A   Scattered Clouds
5:00 AM 48.2 °F - 39.2 °F 71% 29.83 in 6.2 mi NNE 10.4 mph - N/A   Mostly Cloudy
5:30 AM 48.2 °F - 41.0 °F 76% 29.83 in 6.2 mi NNE 10.4 mph - N/A   Mostly Cloudy
6:00 AM 46.4 °F 42.4 °F 41.0 °F 81% 29.83 in 6.2 mi NE 8.1 mph - N/A Rain Light Rain
6:30 AM 48.2 °F - 41.0 °F 76% 29.83 in 6.2 mi NE 9.2 mph - N/A Rain Light Rain
7:00 AM 47 °F - 40 °F 69% 29.86 in 12 mi NE 8.9 mph - - Rain Light Rain
7:00 AM 46.4 °F 41.9 °F 41.0 °F 81% 29.83 in 6.2 mi NE 9.2 mph - N/A Rain Light Rain
7:30 AM 46.4 °F 42.4 °F 42.8 °F 87% 29.86 in 6.2 mi ENE 8.1 mph - N/A Rain Light Rain
8:00 AM 46.4 °F 42.4 °F 42.8 °F 87% 29.86 in 6.2 mi ENE 8.1 mph - N/A Rain Light Rain
8:30 AM 48.2 °F - 42.8 °F 82% 29.86 in 6.2 mi ENE 8.1 mph - N/A   Mostly Cloudy
9:00 AM 48.2 °F - 41.0 °F 76% 29.86 in 6.2 mi ENE 8.1 mph - N/A   Mostly Cloudy
10:00 AM 49 °F - 40 °F 62% 29.90 in 16 mi NE 8.9 mph - -   Partly Cloudy
10:30 AM 50.0 °F - 41.0 °F 71% 29.89 in 6.2 mi ENE 9.2 mph - N/A Rain Light Rain
11:00 AM 50.0 °F - 42.8 °F 76% 29.89 in 6.2 mi ENE 4.6 mph - N/A Rain Light Rain
11:30 AM 51.8 °F - 42.8 °F 71% 29.86 in 6.2 mi ENE 6.9 mph - N/A   Scattered Clouds
12:00 PM 53.6 °F - 42.8 °F 67% 29.86 in 6.2 mi NNE 11.5 mph - N/A   Partly Cloudy
12:30 PM 51.8 °F - 41.0 °F 67% 29.86 in 6.2 mi North 10.4 mph - N/A   Partly Cloudy
1:00 PM 51 °F - 40 °F 56% 29.86 in 16 mi North 13.4 mph - -   Partly Cloudy
1:00 PM 51.8 °F - 39.2 °F 62% 29.86 in 6.2 mi North 12.7 mph - N/A   Mostly Cloudy
1:30 PM 51.8 °F - 41.0 °F 67% 29.86 in 6.2 mi NNE 11.5 mph - N/A   Mostly Cloudy
2:00 PM 51.8 °F - 39.2 °F 62% 29.86 in 6.2 mi NNE 13.8 mph - N/A Rain Light Rain
2:30 PM 50.0 °F - 41.0 °F 71% 29.83 in 6.2 mi NNE 13.8 mph - N/A Rain Light Rain
3:00 PM 50.0 °F - 41.0 °F 71% 29.86 in 6.2 mi North 11.5 mph - N/A Rain Light Rain
3:30 PM 48.2 °F - 41.0 °F 76% 29.86 in 6.2 mi North 11.5 mph - N/A Rain Light Rain
4:00 PM 49 °F - 41 °F 65% 29.86 in 16 mi NNE 17.9 mph - - Rain Light Rain
4:00 PM 48.2 °F - 41.0 °F 76% 29.83 in 6.2 mi NNE 18.4 mph - N/A Rain Light Rain
4:30 PM 48.2 °F - 41.0 °F 76% 29.86 in 6.2 mi NNE 19.6 mph - N/A Rain Light Rain
5:00 PM 46.4 °F 39.2 °F 41.0 °F 81% 29.86 in 6.2 mi NNE 18.4 mph - N/A Rain Light Rain
5:30 PM 46.4 °F 39.5 °F 41.0 °F 81% 29.86 in 6.2 mi NNE 17.3 mph - N/A Rain Rain
6:30 PM 44.6 °F 36.1 °F 39.2 °F 81% 29.92 in 6.2 mi NNE 21.9 mph - N/A Rain Rain
7:00 PM 44 °F - 37 °F 70% 29.90 in 12 mi NNE 24.6 mph - - Rain Light Rain
7:00 PM 44.6 °F 35.5 °F 37.4 °F 76% 29.89 in 6.2 mi NNE 25.3 mph 38.0 mph N/A Rain Light Rain
7:30 PM 44.6 °F 35.5 °F 35.6 °F 71% 29.89 in 6.2 mi NNE 25.3 mph - N/A   Partly Cloudy
8:00 PM 44.6 °F 36.1 °F 35.6 °F 71% 29.89 in 6.2 mi NNE 21.9 mph - N/A   Scattered Clouds
8:30 PM 44.6 °F 36.1 °F 35.6 °F 71% 29.89 in 6.2 mi NNE 21.9 mph - N/A   Partly Cloudy
9:00 PM 44.6 °F 36.1 °F 35.6 °F 71% 29.86 in - NNE 21.9 mph - N/A   Clear
9:30 PM 46.4 °F 38.7 °F 35.6 °F 66% 29.86 in - NNE 20.7 mph - N/A   Clear
10:00 PM 46 °F - 35 °F 55% 29.86 in 19 mi NNE 24.6 mph - - Rain Light Rain
10:00 PM 46.4 °F 38.1 °F 35.6 °F 66% 29.83 in 6.2 mi NNE 24.2 mph - N/A Rain Light Rain
10:30 PM 46.4 °F 40.1 °F 37.4 °F 71% 29.83 in 6.2 mi NNE 15.0 mph - N/A Rain Light Rain
11:00 PM 46.4 °F 40.7 °F 39.2 °F 76% 29.86 in 6.2 mi NNE 12.7 mph - N/A Rain Light Rain
11:30 PM 44.6 °F 39.7 °F 42.8 °F 93% 29.86 in 6.2 mi NE 9.2 mph - N/A Rain Light Rain